Weather reports worldwide

Advertisment
Manschnow, Germany (10396): temperature & dewpoint: 06.11.2019 07:00:00 - 12.11.2019 07:00:00 (CET)Manschnow, Germany (10396): temperature 5cm & temperature -5cm: 06.11.2019 07:00:00 - 12.11.2019 07:00:00 (CET)Manschnow, Germany (10396): temperature -20cm & temperature -100cm: 06.11.2019 07:00:00 - 12.11.2019 07:00:00 (CET)Manschnow, Germany (10396): wind speed & gusts: 06.11.2019 07:00:00 - 12.11.2019 07:00:00 (CET)Manschnow, Germany (10396): wind direction: 06.11.2019 07:00:00 - 12.11.2019 07:00:00 (CET)Manschnow, Germany (10396): reduced air pressure: 06.11.2019 07:00:00 - 12.11.2019 07:00:00 (CET)Manschnow, Germany (10396): visibility: 06.11.2019 07:00:00 - 12.11.2019 07:00:00 (CET)Manschnow, Germany (10396): sunshine duration: 06.11.2019 07:00:00 - 12.11.2019 07:00:00 (CET)Manschnow, Germany (10396): precipitation: 06.11.2019 07:00:00 - 12.11.2019 07:00:00 (CET)
Date & Time tt [°C] td [°C] tt 5cm [°C] tt -5cm [°C] tt -20cm [°C] tt -100cm [°C] ff [km/h] ff [kn] fx [km/h] fx [kn] dd ppp [hPa] vv [km] sd [min] rr [mm]
12.11.2019 07:00:00 3,0 1,3 2,4 2,7 4,6 10,9 10 5 18 10 SSE 1007,2 11 0 0,0
12.11.2019 06:00:00 2,8 0,9 2,2 2,5 4,6 10,9 13 7 19 10 S 1006,7 13 0 0,0
12.11.2019 05:00:00 1,9 0,5 1,4 2,1 4,7 10,9 11 6 16 9 SSE 1006,7 13 0 0,0
12.11.2019 04:00:00 1,7 0,1 1,0 1,9 4,8 10,9 13 7 17 9 SE 1006,9 12 0 0,0
12.11.2019 03:00:00 1,7 0,0 0,2 2,1 4,8 10,9 9 5 14 7 SSE 1007,0 15 0 0,0
12.11.2019 02:00:00 1,4 -0,1 0,6 1,8 5,0 11,0 9 5 14 8 SE 1007,1 16 0 0,0
12.11.2019 01:00:00 0,6 -0,7 -0,7 1,5 5,2 11,0 9 5 13 7 SE 1007,3 15 0 0,0
12.11.2019 00:00:00 1,1 -0,6 -0,8 1,8 5,4 11,0 9 5 13 7 SE 1007,6 17 0 0,0
11.11.2019 23:00:00 1,3 -0,4 -0,1 2,0 5,6 11,0 10 5 15 8 ESE 1008,1 19 0 0,0
11.11.2019 22:00:00 1,8 -0,2 0,3 2,1 5,9 11,0 10 5 14 7 SE 1008,4 21 0 0,0
11.11.2019 21:00:00 1,8 -0,2 -0,9 2,4 6,1 11,0 9 5 18 10 SE 1009,2 22 0 0,0
11.11.2019 20:00:00 3,1 0,4 1,0 2,9 6,4 11,0 13 7 23 12 SSE 1009,5 28 0 0,0
11.11.2019 19:00:00 3,2 0,8 1,5 3,4 6,7 11,0 14 8 24 13 E 1009,3 19 0 0,0
11.11.2019 18:00:00 3,6 1,4 1,5 3,7 6,9 11,0 14 7 21 11 ESE 1009,8 23 0 0,0
11.11.2019 17:00:00 3,1 1,4 0,7 4,6 7,1 11,0 8 4 17 9 ESE 1010,5 18 6 0,0
11.11.2019 16:00:00 4,9 2,3 3,8 5,9 7,2 11,0 10 5 20 11 ESE 1011,2 20 60 0,0
11.11.2019 15:00:00 5,8 2,4 6,0 7,0 7,1 11,0 15 8 21 11 SE 1011,7 26 60 0,0
11.11.2019 14:00:00 6,2 3,1 7,3 7,6 6,8 11,0 13 7 18 10 SE 1011,9 27 60 0,0
11.11.2019 13:00:00 4,6 2,2 6,2 7,0 6,7 11,0 10 5 16 9 SE 1012,8 17 27 0,0
11.11.2019 12:00:00 3,3 2,0 4,8 6,3 6,6 11,0 13 7 22 12 SSE 1013,6 11 1 0,0
11.11.2019 11:00:00 2,5 1,9 3,4 5,6 6,5 11,0 16 8 23 13 SE 1014,1 7 0 0,0
11.11.2019 10:00:00 1,9 1,4 2,6 5,1 6,6 11,1 16 9 22 12 SE 1014,6 4,5 0 0,0
11.11.2019 09:00:00 2,0 1,7 2,5 4,9 6,6 11,1 14 8 20 11 SSE 1015,2 2,4 0 0,0
11.11.2019 08:00:00 2,3 2,1 2,5 4,9 6,7 11,1 11 6 17 9 SSE 1015,5 0,4 0 0,0
11.11.2019 07:00:00 2,9 2,7 3,1 5,1 6,8 11,1 7 4 13 7 S 1015,4 0,5 0 0,0
11.11.2019 06:00:00 3,1 2,9 3,2 5,2 6,8 11,1 9 5 13 7 SSE 1015,4 1,0 0 0,0
11.11.2019 05:00:00 3,3 3,1 3,4 5,3 6,9 11,1 8 4 13 7 SE 1015,4 0,6 0 0,0
11.11.2019 04:00:00 3,3 3,1 3,3 5,4 7,0 11,1 8 5 13 7 S 1015,6 0,5 0 0,0
11.11.2019 03:00:00 3,5 3,3 3,6 5,5 7,1 11,1 7 4 16 8 SSW 1016,0 0,5 0 0,0
11.11.2019 02:00:00 3,4 3,2 3,5 5,6 7,1 11,1 7 4 11 6 S 1016,1 0,6 0 0,0
11.11.2019 01:00:00 3,8 3,4 3,9 5,7 7,2 11,1 8 4 12 6 S 1016,3 0,9 0 0,0
11.11.2019 00:00:00 3,9 3,2 4,0 5,9 7,3 11,1 7 4 10 5 S 1016,5 3,6 0 0,0
10.11.2019 23:00:00 3,9 3,0 4,0 5,9 7,3 11,1 4 2 8 4 SSE 1016,5 5 0 0,0
10.11.2019 22:00:00 4,2 3,1 4,2 6,1 7,4 11,1 4 2 6 3 S 1016,3 7 0 0,0
10.11.2019 21:00:00 4,3 2,9 4,2 6,2 7,5 11,1 2 1 6 3 NE 1016,2 8 0 0,0
10.11.2019 20:00:00 4,4 3,2 4,4 6,3 7,6 11,1 4 2 9 5 SSE 1016,0 8 0 0,0
10.11.2019 19:00:00 4,6 3,4 4,7 6,6 7,7 11,2 3 1 8 5 NE 1016,1 7 0 0,0
10.11.2019 18:00:00 5,0 3,9 5,0 6,8 7,8 11,2 4 2 10 6 NNE 1015,9 4,9 0 0,0
10.11.2019 17:00:00 5,4 4,2 5,2 7,0 7,8 11,2 6 3 11 6 NE 1015,5 6 0 0,0
10.11.2019 16:00:00 5,8 4,3 5,6 7,8 7,8 11,2 5 3 11 6 NE 1015,1 7 0 0,0
10.11.2019 15:00:00 6,6 4,5 6,7 8,5 7,6 11,2 6 3 12 6 NNE 1014,9 10 9 0,0
10.11.2019 14:00:00 6,7 4,4 6,9 9,1 7,4 11,2 8 4 11 6 NE 1014,5 10 12 0,0
10.11.2019 13:00:00 7,4 4,9 9,4 9,3 7,0 11,2 4 2 10 5 NNE 1014,3 12 4 0,0
10.11.2019 12:00:00 6,4 4,2 7,5 8,5 6,6 11,2 4 2 8 5 N 1014,0 13 1 0,0
10.11.2019 11:00:00 6,1 4,0 6,4 7,8 6,4 11,2 4 2 8 4 SSW 1014,1 11 46 0,0
10.11.2019 10:00:00 4,9 4,0 4,9 5,5 6,3 11,2 5 3 10 6 SE 1013,8 6 40 0,0
10.11.2019 09:00:00 3,6 2,7 3,8 4,4 6,3 11,2 7 4 9 5 SE 1013,0 4,7 33 0,0
10.11.2019 08:00:00 3,2 2,7 2,2 4,0 6,4 11,2 5 3 6 3 S 1012,7 3,2 2 0,0
10.11.2019 07:00:00 3,4 3,0 2,8 4,1 6,5 11,2 3 2 8 4 SSE 1012,4 4,1 0 0,0
10.11.2019 06:00:00 3,6 3,2 2,3 3,8 6,6 11,2 6 3 12 7 S 1012,0 8 0 0,0
10.11.2019 05:00:00 2,3 2,0 1,5 3,5 6,9 11,2 6 3 10 5 S 1011,8 4,0 0 0,0
10.11.2019 04:00:00 2,1 1,8 -0,9 3,5 7,2 11,2 7 4 9 5 S 1011,2 0,5 0 0,0
10.11.2019 03:00:00 2,8 2,3 0,2 4,1 7,4 11,2 5 3 7 4 SSE 1010,8 3,3 0 0,0
10.11.2019 02:00:00 4,3 3,8 2,7 4,9 7,6 11,2 7 4 10 5 SSW 1010,5 10 0 0,0
10.11.2019 01:00:00 4,9 4,4 3,1 5,5 7,8 11,2 8 4 10 5 SSW 1010,4 9 0 0,0
10.11.2019 00:00:00 5,8 5,1 4,8 6,4 7,9 11,2 5 3 10 5 SW 1010,2 12 0 0,0
09.11.2019 23:00:00 6,3 5,3 5,3 6,7 8,0 11,2 6 3 16 9 SW 1009,9 12 0 0,0
09.11.2019 22:00:00 6,8 5,5 6,2 7,0 8,1 11,2 12 6 18 10 WSW 1009,7 17 0 0,0
09.11.2019 21:00:00 6,8 5,5 6,2 7,1 8,1 11,3 10 5 18 10 SW 1009,4 15 0 0,0
09.11.2019 20:00:00 7,1 5,4 6,6 7,3 8,2 11,3 9 5 24 13 WSW 1008,8 21 0 0,0
09.11.2019 19:00:00 7,2 5,6 6,4 7,5 8,3 11,3 15 8 26 14 W 1008,2 21 0 0,0
09.11.2019 18:00:00 7,4 6,2 6,7 7,7 8,3 11,3 15 8 29 16 W 1007,8 11 0 0,1
09.11.2019 17:00:00 7,9 6,4 7,1 8,0 8,3 11,3 17 9 25 14 WSW 1007,1 16 0 0,0
09.11.2019 16:00:00 8,3 6,8 7,9 8,2 8,3 11,3 14 8 22 12 WSW 1006,4 13 0 0,0
09.11.2019 15:00:00 8,3 7,2 7,8 8,3 8,2 11,3 11 6 20 11 WSW 1005,7 9 0 0,1
09.11.2019 14:00:00 8,4 7,0 7,8 8,2 8,2 11,3 14 8 21 11 W 1005,4 9 0 0,0
09.11.2019 13:00:00 8,6 7,0 7,8 8,3 8,1 11,3 10 6 19 10 WSW 1005,5 11 0 0,0
09.11.2019 12:00:00 8,4 7,5 8,0 8,3 8,0 11,3 9 5 19 10 WSW 1005,0 7 0 0,0
09.11.2019 11:00:00 8,2 7,6 7,9 8,2 7,9 11,3 10 5 17 9 WSW 1005,1 3,8 0 0,0
09.11.2019 10:00:00 7,9 7,6 7,7 7,9 7,8 11,3 11 6 18 10 WSW 1005,3 1,0 0 0,0
09.11.2019 09:00:00 7,7 7,3 7,4 7,4 7,8 11,3 8 5 13 7 SSW 1005,3 1,9 0 0,0
09.11.2019 08:00:00 6,9 6,6 6,7 7,2 7,8 11,3 4 2 9 5 S 1005,1 2,0 0 0,0
09.11.2019 07:00:00 6,8 6,5 6,5 7,0 7,8 11,3 7 4 9 5 WSW 1004,5 1,9 0 0,0
09.11.2019 06:00:00 6,8 6,4 6,3 6,9 7,9 11,3 5 3 12 7 SSE 1004,8 2,6 0 0,0
09.11.2019 05:00:00 6,9 6,3 6,3 7,0 7,9 11,3 7 4 13 7 ENE 1003,9 3,1 0 0,0
09.11.2019 04:00:00 7,1 6,5 6,3 7,2 8,0 11,3 8 5 15 8 E 1004,2 3,6 0 0,0
09.11.2019 03:00:00 7,5 6,7 6,9 7,4 7,9 11,4 9 5 16 9 ENE 1004,4 4,9 0 0,0
09.11.2019 02:00:00 7,8 6,8 7,2 7,5 7,9 11,4 9 5 17 9 ENE 1004,7 6 0 0,0
09.11.2019 01:00:00 8,0 6,9 7,2 7,4 7,9 11,4 9 5 16 9 ENE 1004,8 6 0 0,1
09.11.2019 00:00:00 8,0 6,7 7,1 7,3 7,9 11,4 9 5 17 9 ENE 1004,9 7 0 0,0
08.11.2019 23:00:00 7,8 6,8 6,9 7,3 8,0 11,4 8 4 16 9 NE 1005,3 5 0 0,0
08.11.2019 22:00:00 8,3 6,7 7,2 7,4 8,0 11,4 9 5 17 9 NE 1005,5 7 0 0,0
08.11.2019 21:00:00 7,9 6,9 7,1 7,4 8,0 11,4 10 5 19 10 ENE 1005,8 5 0 0,3
08.11.2019 20:00:00 7,9 6,9 7,2 7,4 8,0 11,4 10 5 20 11 ENE 1005,9 3,0 0 0,5
08.11.2019 19:00:00 8,4 6,4 7,6 7,3 8,0 11,4 12 7 21 11 ENE 1006,1 10 0 0,0
08.11.2019 18:00:00 7,9 6,2 7,0 7,1 8,1 11,4 8 4 14 8 NNE 1006,4 9 0 0,0
08.11.2019 17:00:00 7,5 5,9 5,8 7,3 8,2 11,4 5 3 16 8 ENE 1007,0 9 0 0,0
08.11.2019 16:00:00 8,4 5,9 7,5 8,1 8,1 11,4 10 6 20 11 ENE 1006,7 12 0 0,0
08.11.2019 15:00:00 8,5 6,0 8,0 8,7 8,0 11,4 10 5 18 10 ENE 1007,2 13 0 0,0
08.11.2019 14:00:00 8,7 6,0 8,4 9,0 7,8 11,4 8 4 14 8 ENE 1007,6 17 0 0,0
08.11.2019 13:00:00 8,5 6,3 8,6 9,1 7,5 11,4 8 5 14 8 E 1008,2 16 0 0,0
08.11.2019 12:00:00 8,0 5,4 8,2 9,1 7,1 11,4 4 2 9 5 NE 1008,3 18 40 0,0
08.11.2019 11:00:00 7,2 4,6 8,5 7,8 6,8 11,4 3 1 4 2 N 1008,9 15 9 0,0
08.11.2019 10:00:00 6,2 4,6 6,3 6,5 6,7 11,4 3 2 8 5 E 1009,2 16 0 0,0
08.11.2019 09:00:00 5,4 4,1 5,1 5,3 6,7 11,4 3 2 11 6 SE 1008,8 15 0 0,0
08.11.2019 08:00:00 4,3 3,3 3,5 4,2 6,8 11,4 8 4 11 6 SE 1008,7 14 0 0,0
08.11.2019 07:00:00 3,8 2,9 1,7 4,0 6,9 11,4 6 3 11 6 SE 1008,2 16 0 0,0
08.11.2019 06:00:00 4,4 3,1 2,9 4,3 7,1 11,4 10 5 13 7 SE 1008,0 18 0 0,0
08.11.2019 05:00:00 4,2 2,8 2,8 4,2 7,3 11,4 7 4 12 6 ESE 1007,6 18 0 0,0
08.11.2019 04:00:00 4,2 2,9 1,6 4,6 7,4 11,4 9 5 11 6 SSE 1007,4 19 0 0,0
08.11.2019 03:00:00 5,9 3,6 3,7 5,2 7,6 11,4 9 5 21 11 S 1007,1 25 0 0,0
08.11.2019 02:00:00 6,9 3,7 5,1 5,2 7,7 11,4 14 8 22 12 S 1006,7 30 0 0,0
08.11.2019 01:00:00 6,6 3,8 3,4 5,3 7,9 11,4 7 4 18 10 SSE 1006,4 29 0 0,0
08.11.2019 00:00:00 6,6 4,0 4,8 5,5 8,1 11,4 9 5 12 7 SE 1006,2 31 0 0,0
07.11.2019 23:00:00 6,3 4,2 4,4 5,8 8,3 11,5 9 5 16 9 SE 1006,0 31 0 0,0
07.11.2019 22:00:00 6,8 4,7 5,1 6,2 8,5 11,5 9 5 11 6 ESE 1005,8 30 0 0,0
07.11.2019 21:00:00 7,0 4,9 5,0 6,5 8,7 11,5 9 5 12 7 SE 1005,8 30 0 0,0
07.11.2019 20:00:00 7,4 5,1 5,7 6,8 8,9 11,5 11 6 18 10 SE 1005,2 32 0 0,0
07.11.2019 19:00:00 7,4 5,4 5,3 6,9 9,1 11,5 10 5 13 7 ESE 1004,9 23 0 0,0
07.11.2019 18:00:00 7,3 5,8 3,6 7,6 9,3 11,5 9 5 10 6 ESE 1004,7 31 0 0,0
07.11.2019 17:00:00 8,8 6,5 5,4 8,9 9,4 11,5 6 3 10 5 ESE 1004,6 31 0 0,0
07.11.2019 16:00:00 10,8 7,6 9,1 10,0 9,3 11,5 6 3 11 6 SSE 1004,0 34 0 0,0
07.11.2019 15:00:00 11,1 7,7 9,7 10,6 9,1 11,5 8 4 15 8 SE 1003,8 33 32 0,0
07.11.2019 14:00:00 11,2 7,2 11,1 11,3 8,7 11,5 10 5 16 9 SSE 1003,6 29 60 0,0
07.11.2019 13:00:00 10,5 7,2 11,0 10,9 8,3 11,5 10 5 18 10 S 1003,9 29 49 0,0
07.11.2019 12:00:00 9,1 6,9 9,3 9,3 8,1 11,5 10 5 15 8 SSE 1004,2 21 0 0,0
07.11.2019 11:00:00 8,2 6,7 8,0 8,2 8,0 11,5 10 5 18 10 SSE 1004,4 17 0 0,0
07.11.2019 10:00:00 7,4 6,7 7,0 7,4 7,9 11,5 11 6 17 9 SE 1004,2 8 0 0,0
07.11.2019 09:00:00 6,8 6,2 6,5 6,9 7,9 11,5 5 3 15 8 SSE 1004,3 7 0 0,0
07.11.2019 08:00:00 6,1 5,6 5,9 6,3 8,0 11,5 8 4 12 7 ESE 1004,1 6 0 0,0
07.11.2019 07:00:00 5,7 5,3 4,9 6,3 8,1 11,5 6 3 8 5 ESE 1003,8 4,2 0 0,0
07.11.2019 06:00:00 5,8 5,4 5,0 6,4 8,2 11,5 5 3 8 4 ESE 1003,7 5 0 0,0
07.11.2019 05:00:00 6,0 5,7 5,4 6,4 8,3 11,5 7 4 10 5 SSE 1003,9 6 0 0,0
07.11.2019 04:00:00 5,9 5,4 5,0 6,6 8,5 11,5 7 4 9 5 SSE 1003,9 9 0 0,0
07.11.2019 03:00:00 6,0 5,4 4,6 6,6 8,6 11,5 4 2 12 7 SSW 1003,7 12 0 0,0
07.11.2019 02:00:00 6,9 5,9 5,4 7,2 8,7 11,5 8 4 15 8 WSW 1003,8 15 0 0,0
07.11.2019 01:00:00 7,4 6,4 6,3 7,6 8,8 11,5 10 6 16 9 SW 1003,6 19 0 0,0
07.11.2019 00:00:00 7,9 7,1 7,3 8,0 8,9 11,5 9 5 13 7 SW 1003,5 10 0 0,0
06.11.2019 23:00:00 7,7 7,1 7,2 8,0 8,9 11,5 5 3 9 5 S 1003,4 11 0 0,0
06.11.2019 22:00:00 7,8 7,3 7,1 8,0 9,0 11,5 6 3 9 5 WSW 1003,2 8 0 0,0
06.11.2019 21:00:00 7,8 7,3 7,2 8,2 9,0 11,5 5 3 9 5 SW 1002,7 9 0 0,1
06.11.2019 20:00:00 7,8 7,2 7,3 8,3 9,1 11,5 5 3 9 5 SW 1002,4 18 0 0,2
06.11.2019 19:00:00 8,0 7,3 7,4 8,4 9,1 11,5 4 2 9 5 SW 1002,2 12 0 0,6
06.11.2019 18:00:00 8,3 7,5 7,7 8,7 9,2 11,5 6 3 11 6 WSW 1001,9 12 0 0,6
06.11.2019 17:00:00 8,5 7,7 8,0 8,8 9,2 11,5 4 2 12 6 WSW 1001,5 6 0 0,2
06.11.2019 16:00:00 8,7 7,4 8,0 9,0 9,2 11,4 8 4 16 9 WSW 1001,0 13 0 0,0
06.11.2019 15:00:00 8,9 7,6 8,5 9,2 9,2 11,4 9 5 17 9 SW 1000,8 16 0 0,0
06.11.2019 14:00:00 8,8 7,4 8,5 9,3 9,1 11,4 10 5 19 11 WSW 1000,3 15 0 0,0
06.11.2019 13:00:00 8,8 7,4 8,3 9,2 9,0 11,4 14 8 25 14 WSW 1000,0 8 0 0,0
06.11.2019 12:00:00 9,0 7,2 8,8 9,4 8,9 11,4 16 9 27 15 WSW 999,4 16 0 0,0
06.11.2019 11:00:00 8,7 7,0 8,6 9,0 8,9 11,4 20 11 28 15 WSW 999,3 15 0 0,0
06.11.2019 10:00:00 8,3 6,8 7,8 8,6 8,8 11,4 17 9 28 15 WSW 998,9 13 0 0,0
06.11.2019 09:00:00 7,9 6,5 7,3 8,2 8,9 11,4 18 10 28 15 SW 998,4 13 0 0,1
06.11.2019 08:00:00 8,0 6,6 7,2 8,0 8,9 11,4 16 9 24 13 SW 998,0 14 0 0,3
06.11.2019 07:00:00 8,3 6,7 7,3 8,1 8,9 11,4 16 9 26 14 SW 997,4 15 0 0,1

tt = temperature
td = dewpoint
tt 5cm = temperature 5cm
tt -5cm = temperature -5cm
tt -20cm = temperature -20cm
tt -100cm = temperature -100cm
ff = wind speed
fx = gusts
dd = wind direction
ppp = reduced air pressure
vv = visibility
sd = sunshine duration
rr = precipitation

Next stations